Regional Weather Roundup
Issued by NWS Little Rock, AR

Home | Current Version | Previous Version | Graphics & Text | Print | Product List | Glossary On
Versions: 1 2 3 4 5 6 7 8 9 10 11 12 13 14 15 16 17 18 19 20 21 22 23 24 25 26 27
000
ASUS44 KLZK 031205
RWRLZK

WEATHER ROUNDUP FOR ARKANSAS
NATIONAL WEATHER SERVICE LITTLE ROCK AR
700 AM CDT TUE MAY 03 2016

NOTE: "FAIR" INDICATES FEW OR NO CLOUDS BELOW 12,000 FEET WITH NO
SIGNIFICANT WEATHER AND/OR OBSTRUCTIONS TO VISIBILITY.

ARZ001-003-010-029-031300-
NORTHWEST ARKANSAS

CITY           SKY/WX    TMP DP  RH WIND       PRES   REMARKS
FAYETTEVILLE   FOG       38  38 100 CALM      30.09R VSB 1/4
6HR MIN TEMP:  36; 6HR MAX TEMP:  43;

FORT SMITH     CLEAR     45  42  89 W5        30.09R
6HR MIN TEMP:  44; 6HR MAX TEMP:  51;

HARRISON       PTCLDY    46  45  96 NW7       30.06S FOG
6HR MIN TEMP:  46; 6HR MAX TEMP:  49;

BENTONVILLE    PTCLDY    43  39  87 CALM      30.09R
ROGERS         FOG       42  42 100 CALM      30.09R VSB<1/4
6HR MIN TEMP:  41; 6HR MAX TEMP:  44;

SILOAM SPGS    CLOUDY    39  30  70 CALM      30.10R VSB<1/4
6HR MIN TEMP:  39; 6HR MAX TEMP:  46;

HIGHFILL       MOCLDY    41  40  96 CALM      30.09R
6HR MIN TEMP:  39; 6HR MAX TEMP:  47;

SPRINGDALE     MOCLDY    46  46 100 NW3       30.10R
$$

ARZ004-005-016-031300-
NORTH CENTRAL ARKANSAS

CITY           SKY/WX    TMP DP  RH WIND       PRES   REMARKS
BATESVILLE     PTCLDY    50  46  87 CALM      30.05R
6HR MIN TEMP:  50; 6HR MAX TEMP:  57;

FLIPPIN        CLEAR    N/A N/A N/A NW5       30.03R
MTN HOME       CLEAR     48  46  93 CALM      30.05R
6HR MIN TEMP:  48; 6HR MAX TEMP:  52;

$$

ARZ040-041-031300-
WEST CENTRAL ARKANSAS

CITY           SKY/WX    TMP DP  RH WIND       PRES   REMARKS
MENA           PTCLDY    43  41  93 CALM      30.07S
MOUNT IDA      PTCLDY    46  44  93 CALM      30.04R
6HR MIN TEMP:  46; 6HR MAX TEMP:  54;

$$

ARZ009-017-025-026-028-031300-
NORTHEAST ARKANSAS

CITY           SKY/WX    TMP DP  RH WIND       PRES   REMARKS
CORNING          N/A     54  50  87 NW7       30.04R
JONESBORO      CLEAR     54  50  86 NW3       30.02R
6HR MIN TEMP:  54; 6HR MAX TEMP:  59;

NEWPORT        CLEAR     53  51  93 NW5       30.05R
6HR MIN TEMP:  51; 6HR MAX TEMP:  58;

WALNUT RIDGE   MOCLDY    54  46  76 N9        30.02R
6HR MIN TEMP:  52; 6HR MAX TEMP:  57;

BLYTHEVILLE    CLOUDY    56  52  86 N10       30.01R
6HR MIN TEMP:  56; 6HR MAX TEMP:  58;

$$

ARZ022-023-033-042-044-031300-
CENTRAL ARKANSAS

CITY           SKY/WX    TMP DP  RH WIND       PRES   REMARKS
LITTLE ROCK    MOCLDY    57  48  72 NW9       30.04R
6HR MIN TEMP:  57; 6HR MAX TEMP:  59;

N LITTLE ROCK    N/A     54  49  84 N5        30.03R
6HR MIN TEMP:  53; 6HR MAX TEMP:  56;

SEARCY         CLOUDY    54  50  87 NW5       30.06R
6HR MIN TEMP:  54; 6HR MAX TEMP:  57;

HOT SPRINGS    CLOUDY    54  49  83 CALM      30.06R
6HR MIN TEMP:  54; 6HR MAX TEMP:  57;

RUSSELLVILLE   CLEAR     50  48  93 N3        30.06R
6HR MIN TEMP:  48; 6HR MAX TEMP:  57;

$$

ARZ036-031300-
EAST ARKANSAS

CITY           SKY/WX    TMP DP  RH WIND       PRES   REMARKS
WEST MEMPHIS   CLOUDY    55  53  93 N7        30.00S
6HR MIN TEMP:  54; 6HR MAX TEMP:  61;

$$

ARZ050-053-066-070-073-031300-
SOUTHWEST ARKANSAS

CITY           SKY/WX    TMP DP  RH WIND       PRES   REMARKS
ARKADELPHIA    PTSUNNY   56  56 100 NW7       30.06R
6HR MIN TEMP:  56; 6HR MAX TEMP:  59;

CAMDEN         CLOUDY    55  50  82 N3        30.05R
TEXARKANA      PTCLDY    50  46  86 NW6       30.06R
6HR MIN TEMP:  50; 6HR MAX TEMP:  53;

EL DORADO      MOCLDY    54  53  97 NW6       30.04R
6HR MIN TEMP:  53; 6HR MAX TEMP:  57;

DE QUEEN       FOG       44  44 100 CALM      30.06R VSB 1
6HR MIN TEMP:  44; 6HR MAX TEMP:  49;

$$

ARZ056-057-069-031300-
SOUTHEAST ARKANSAS

CITY           SKY/WX    TMP DP  RH WIND       PRES   REMARKS
PINE BLUFF     CLOUDY    56  51  84 N7        30.03R
6HR MIN TEMP:  54; 6HR MAX TEMP:  59;

STUTTGART      CLOUDY    55  48  76 N8        30.03R
6HR MIN TEMP:  54; 6HR MAX TEMP:  57;

MONTICELLO     CLOUDY    57  54  89 CALM      30.02R
6HR MIN TEMP:  57; 6HR MAX TEMP:  60;


$$






USA.gov is the U.S. government's official web portal to all federal, state and local government web resources and services.